Weather in Antykan

Russia / Khabarovsk Krai     54°53′01″N   135°08′49″E
temp.,
°C
wind,
m/s
gust,
m/s
humid.,
%
clouds,
%
prec.,
mm/h
press.,
hPa
HPBL,
m
27 february, sat
sat2701:00−20wnw44760 0.0 102942
04:00−21wnw43750 0.0 102841
07:00−21wnw44740 0.0 102744
10:00−17wnw33730 0.0 1026103
13:00−12sw116449 0.0 1024401
16:00−17e229675 0.0 1020159
19:00−19ene2493100 0.0 1018158
22:00−19ene3599100 0.9 1016261
28 february, sun
sun2801:00−19ene4699100 1.9 1015254
04:00−20ene46100100 3.1 1014259
07:00−22e23100100 0.4 1014174
10:00−20e2396100 0.7 1015454
13:00−18sse1187100 0.3 1016479
16:00−17sw3387100 0.5 1017532
19:00−19wnw3388100 0.0 102036
22:00−19nw3375100 0.0 102265
1 march, mon
mon101:00−22nw3472100 0.0 102364
04:00−24nw4473100 0.0 102478
07:00−25nw4473100 0.0 102562
10:00−23wnw466990 0.0 1025267
13:00−20wnw46596 0.0 10241131
16:00−19wnw486132 0.0 10241419
19:00−25w447857 0.0 102560
22:00−28wnw447229 0.0 102642
2 march, tue
tue201:00−29nw44670 0.0 102660
04:00−29nw44680 0.0 102664
07:00−30nw44690 0.0 102746
10:00−26wnw34720 0.0 1026162
13:00−22w36580 0.0 10251089
16:00−21wsw466516 0.0 10241304
19:00−25w447998 0.0 102655
22:00−27nw446963 0.0 102735
3 march, wed
wed301:00−28nw43630 0.0 102737
04:00−29nw43640 0.0 102639
07:00−29nw43640 0.0 102538
10:00−24nw23650 0.0 1023110
13:00−18w125629 0.0 1019410
16:00−18se217265 0.0 1016323
19:00−22ne1296100 0.1 101528
22:00−22ne1199100 0.3 101421